Flag for Poland Weather past 2 weeks in Zielona Góra, Poland

Now
87 °F

Passing clouds.


Feels Like: 86 °F
Forecast: 74 / 96 °F
Wind: 2 mph from Southeast

Location: Zielona Gora

Current Time: Jul 4, 2015 at 12:49:03 PM

Latest Report: Jul 4, 2015 at 12:00 PM


Visibility: 22 mi

Pressure: 30.16 "Hg

Humidity: 40%

Dew point: 60 °F

Location of Zielona GóraLocation

Historic Weather in Zielona Góra — Graph

°F

Zielona Góra temperature yesterday

Maximum temperature yesterday: 84 °F (at 3:00 PM)
Minimum temperature yesterday: 63 °F (at 5:00 AM)
Average temperature yesterday: 75 °F

Past Weeks' High & Low Weather Summary

 TemperatureHumidityPressure
High84 °F (Jul 3, 3:00 PM)99% (Jun 23, 3:00 AM)30.33 "Hg (Jun 23, 3:00 AM)
Low48 °F (Jun 24, 5:00 AM)21% (Jul 3, 3:00 PM)29.65 "Hg (Jun 23, 7:00 AM)
Average62 °F71%30.08 "Hg
* Reported Jun 19 11:00 AM — Jul 4 11:00 AM, Zielona Góra, Weather by CustomWeather, © 2015

Note: Actual official high and low records may vary slightly from our data, if they occured in-between our weather recording intervals... More about our weather records

Advertising

Zielona Góra weather history for previous 24 hours

 ConditionsComfort  
Time TempWeatherWind HumidityBarometerVisibility
11:00 AM
Sat, Jul 4
84 °FPassing clouds.2 mph41%30.18 "Hg22 mi
10:00 AM82 °FPassing clouds.No wind44%30.19 "Hg19 mi
9:00 AM78 °FPassing clouds.1 mph55%30.19 "Hg16 mi
8:00 AM71 °FPassing clouds.2 mph63%30.21 "Hg14 mi
7:00 AM66 °FPassing clouds.2 mph68%30.22 "Hg19 mi
6:00 AM65 °FScattered clouds.3 mph67%30.22 "Hg28 mi
5:00 AM66 °FScattered clouds.3 mph64%30.22 "Hg28 mi
4:00 AM67 °FPassing clouds.3 mph58%30.22 "Hg31 mi
3:00 AM69 °FClear.3 mph54%30.23 "Hg31 mi
2:00 AM70 °FClear.3 mph50%30.24 "Hg31 mi
1:00 AM73 °FPassing clouds.3 mph44%30.24 "Hg31 mi
12:00 AM74 °FPassing clouds.2 mph43%30.26 "Hg31 mi
11:00 PM
Fri, Jul 3
75 °FPassing clouds.2 mph42%30.26 "Hg31 mi
10:00 PM75 °FPassing clouds.1 mph38%30.27 "Hg31 mi
9:00 PM77 °FPassing clouds.1 mph37%30.25 "Hg31 mi
8:00 PM82 °FPassing clouds.2 mph31%30.24 "Hg31 mi
7:00 PM84 °FPassing clouds.2 mph28%30.25 "Hg31 mi
6:00 PM84 °FPassing clouds.3 mph27%30.25 "Hg31 mi
5:00 PM84 °FPassing clouds.5 mph26%30.26 "Hg31 mi
4:00 PM84 °FPassing clouds.5 mph24%30.27 "Hg31 mi
3:00 PM84 °FPassing clouds.3 mph21%30.28 "Hg31 mi
2:00 PM83 °FPassing clouds.3 mph28%30.30 "Hg31 mi
1:00 PM82 °FSunny.5 mph29%30.32 "Hg25 mi
12:00 PM80 °FSunny.5 mph34%30.32 "Hg25 mi
Weather by CustomWeather, © 2015

See weather overviewHow to use our weather pages